Regional Weather Roundup
Issued by NWS

Home | Current Version | Previous Version | Graphics & Text | Print | Product List | Glossary On
Versions: 1 2 3 4 5 6 7 8 9 10 11 12 13 14 15 16 17 18 19 20 21 22 23 24 25 26 27 28 29 30 31 32 33 34 35 36 37 38 39 40 41 42 43 44 45 46 47 48 49 50
000
ASUS43 KOAX 241610
RWRNE

WEATHER ROUNDUP FOR NEBRASKA
NATIONAL WEATHER SERVICE OMAHA NE
1100 AM CDT WED AUG 24 2016

NOTES: SATELLITE DATA IS BEING USED TO AUGMENT CLOUD COVER ABOVE
       12000 FEET.
       "FAIR" INDICATES FEW OR NO CLOUDS BELOW 12,000 FEET WITH NO
       SIGNIFICANT WEATHER AND/OR OBSTRUCTIONS TO VISIBILITY.

  * THESE STATIONS DO NOT REPORT WEATHER SUCH AS RAIN...SNOW OR FOG.

NEZ001>004-019>022-054>056-241700-
NEBRASKA PANHANDLE

CITY           SKY/WX    TMP DP  RH WIND       PRES   REMARKS
SCOTTSBLUFF    CLOUDY    62  44  51 MISG      30.23R
ALLIANCE       CLOUDY    60  42  51 CALM      30.23R
CHADRON        CLOUDY    63  41  44 NE8       30.23R
KIMBALL        LGT RAIN  56  50  80 E6        30.28S
SIDNEY         CLOUDY    65  44  46 N9        30.23S
$$

NEZ057>060-069>072-079>082-241700-
SOUTHWEST NEBRASKA

CITY           SKY/WX    TMP DP  RH WIND       PRES   REMARKS
NORTH PLATTE   MOSUNNY   72  45  37 NE6       30.15R
IMPERIAL       CLOUDY    67  44  43 N7        30.17R
LEXINGTON      CLOUDY    67  50  54 N6        30.11R
MCCOOK         PTSUNNY   70  44  39 VRB5      30.11R
OGALLALA       CLOUDY    72  36  27 NE7       30.18R
$$

NEZ005>010-023>029-035>040-094-241700-
NORTH CENTRAL NEBRASKA

CITY           SKY/WX    TMP DP  RH WIND       PRES   REMARKS
VALENTINE      CLOUDY    63  44  50 NW8       30.20R
AINSWORTH      CLOUDY    64  48  57 NW12      30.17R
BROKEN BOW     MOSUNNY   72  48  42 NE8       30.11S
O`NEILL        CLOUDY    67  49  53 NW8       30.12R
ORD            CLOUDY    67  50  54 CALM      30.09R
THEDFORD       CLOUDY    67  41  38 N12       30.17R
$$

NEZ041-046>049-061>064-073>077-083>087-241700-
SOUTH CENTRAL NEBRASKA

CITY           SKY/WX    TMP DP  RH WIND       PRES   REMARKS
GRAND ISLAND   CLOUDY    70  52  52 N10       30.06R
AURORA         PTSUNNY   71  55  55 N6        30.05R
HASTINGS       PTSUNNY   72  54  53 NE13      30.07R
HEBRON         CLOUDY    73  67  81 E3        30.02R
HOLDREGE       PTSUNNY   64  51  63 NE7       30.08S
KEARNEY *      CLOUDY    64  52  63 NE6       30.08R
YORK           CLOUDY    72  55  56 NE14      30.04R
$$

NEZ011>018-030>034-042>045-241700-
NORTHEAST NEBRASKA

CITY           SKY/WX    TMP DP  RH WIND       PRES   REMARKS
NORFOLK        CLOUDY    68  56  65 NW6       30.05R
ALBION         CLOUDY    67  55  65 NW5       30.07R
BLAIR          MOSUNNY   74  63  67 N14       30.00R
FREMONT        CLOUDY    75  58  56 N6        30.02R
TEKAMAH        PTSUNNY   76  62  62 N10       30.00R
WAYNE          CLOUDY    70  58  65 N5        30.05R
$$

NEZ050>053-065>068-078-088>093-241700-
SOUTHEAST NEBRASKA

CITY           SKY/WX    TMP DP  RH WIND       PRES   REMARKS
LINCOLN        MOSUNNY   79  59  50 NE13      30.02R
OMAHA EPPLEY   PTSUNNY   76  65  68 N15       29.97S
BEATRICE       CLOUDY    74  66  76 E5        30.01R
FALLS CITY     CLOUDY    73  69  87 N6        29.99R
NEBRASKA CITY  CLOUDY    72  69  92 S5        30.01R
PLATTSMOUTH    SUNNY     76  67  73 NE6       30.01R
$$

NEZ044-045-051>053-067-241700-
OMAHA AREA

CITY           SKY/WX    TMP DP  RH WIND       PRES   REMARKS
OMAHA EPPLEY   PTSUNNY   76  65  68 N15       29.97S
BLAIR          MOSUNNY   74  63  67 N14       30.00R
FREMONT        CLOUDY    75  58  56 N6        30.02R
MILLARD        SUNNY     76  64  67 CALM      29.99R
OFFUTT AFB     SUNNY     76  67  72 NE8       29.99R
PLATTSMOUTH    SUNNY     76  67  73 NE6       30.01R
WAHOO          FAIR      74  60  62 N12       30.00R
$$




USA.gov is the U.S. government's official web portal to all federal, state and local government web resources and services.